Location: Horowhenua Lake
(40.6167°S, 175.2500°E)
Time: 06:15:07
(UTC+00:00)

Daily predictions for brighter satellites

Satellite Brightness Start Highest point End
(mag) Time Altitude Azimuth Time Altitude Azimuth Time Altitude Azimuth
Cosmos 2278 Rocket 4.4 13:50:49 21° S 13:50:49 21° S 13:52:41 10° SSE
Cosmos 1943 Rocket 4.1 14:01:56 26° SE 14:01:56 26° SE 14:04:25 10° SSE
Cosmos 2369 Rocket 4.4 14:03:53 18° E 14:03:53 18° E 14:06:31 10° ESE
SL-16 R/B 3.9 14:25:19 10° SE 14:30:45 31° E 14:31:35 30° ENE
ATLAS 2AS CENTAUR R/B 4.1 14:31:37 25° ENE 14:31:56 25° ENE 14:37:07 10° ESE
NOSS 3-4 (A) 4.1 14:44:34 69° SW 14:44:34 69° SW 14:52:30 10° SSE
NOSS 3-4 (C) 4.1 14:44:39 70° SW 14:44:39 70° SW 14:52:36 10° SSE
Cosmos 1656 Rocket 4.0 15:08:30 59° E 15:08:30 59° E 15:13:41 10° SSE
Cosmos 1331 Rocket 4.5 15:04:18 10° SSW 15:08:47 57° SSE 15:08:47 57° SSE
ISS -0.9 15:19:56 16° SSE 15:19:56 16° SSE 15:20:56 10° SE
Cosmos 1727 Rocket 3.9 15:31:30 66° WNW 15:31:56 68° W 15:38:13 10° S
Cosmos 1153 Rocket 4.4 15:33:57 10° SSW 15:40:07 61° W 15:40:41 58° WNW
Spot 4 Rocket 4.4 15:35:11 10° NNE 15:40:17 64° ESE 15:45:27 10° S
Cosmos 2100 Rocket 4.0 15:35:07 10° S 15:41:31 86° E 15:47:45 10° N
SL-4 R/B 3.0 15:43:17 38° S 15:43:17 38° S 15:46:22 10° SE
RESURS DK-1 2.7 15:43:38 60° S 15:43:38 60° S 15:47:08 10° SSE
Cosmos 1943 Rocket 3.6 15:43:27 23° SW 15:43:27 23° SW 15:47:29 10° S
Meteor 1-19 Rocket 4.4 15:38:12 10° S 15:44:09 73° E 15:49:50 10° NNE
Okean 1 3.9 15:40:22 10° S 15:44:23 56° E 15:46:10 30° NE
CZ-2D R/B 3.9 15:47:00 53° SSW 15:47:00 53° SSW 15:50:29 10° SSW
Cosmos 2369 Rocket 2.2 15:45:41 57° W 15:46:09 59° WSW 15:51:45 10° SSE
Cosmos 1408 Rocket 3.4 15:48:38 80° WSW 15:48:38 80° WSW 15:53:03 10° S
Meteor 1-28 Rocket 4.5 15:46:13 10° S 15:48:31 32° SSW 15:48:31 32° SSW
CZ-2C R/B 4.1 15:51:02 10° NE 15:54:51 43° ESE 15:58:44 10° S
ARIANE 5 R/B 3.2 15:57:36 36° WSW 15:57:36 36° WSW 16:01:13 10° SSW
Meteor 1-29 3.9 15:57:59 39° S 15:57:59 39° S 16:00:13 10° S
CZ-2C R/B 2.6 15:57:58 28° NNE 15:57:58 28° NNE 16:01:20 10° ENE
H-2A R/B 3.2 15:57:59 10° NNE 16:01:43 61° ESE 16:05:32 10° S
CZ-4C R/B 4.3 16:02:21 10° SSW 16:06:43 22° SE 16:10:30 10° E
YAOGAN 11 4.1 16:04:10 10° S 16:08:31 60° WSW 16:09:24 49° WNW
YAOGAN 6 3.8 16:14:01 27° SW 16:14:01 27° SW 16:15:55 10° SSW
Cosmos 1378 2.9 16:09:02 10° S 16:12:45 78° W 16:14:24 31° N
Lacrosse 5 3.5 16:09:20 10° SSW 16:14:00 33° SSE 16:18:38 10° E
SL-16 R/B 3.0 16:08:35 10° S 16:14:25 43° WSW 16:16:40 31° WNW
Meteor 1-27 Rocket 4.4 16:10:56 10° SSW 16:15:50 32° W 16:15:50 32° W
Elektron 1 4.0 16:17:45 55° W 16:18:03 58° SW 16:21:00 10° SSE
Cosmos 1459 Rocket 4.1 16:14:45 10° SSW 16:20:43 51° W 16:26:43 10° NNW
Cosmos 1864 Rocket 4.4 16:15:03 10° S 16:21:16 81° W 16:27:25 10° N
Envisat 3.2 16:17:09 10° N 16:22:04 47° W 16:27:03 10° SSW
ATLAS 2AS CENTAUR R/B 2.7 16:19:04 30° WNW 16:22:17 59° SW 16:28:52 10° SSE
Cosmos 2228 Rocket 3.6 16:20:54 10° S 16:25:33 64° E 16:30:07 10° NNE
Cosmos 1515 Rocket 4.2 16:21:40 10° SSW 16:25:39 34° W 16:25:54 33° W
Meteor 1-18 Rocket 4.3 16:21:37 10° SSW 16:27:39 82° W 16:33:33 10° N
Cosmos 1805 Rocket 3.4 16:24:26 16° NNW 16:27:52 75° W 16:32:17 10° S
GPS 2-04 Rocket1 3.7 16:29:48 27° NNW 16:30:17 28° NNW 16:33:38 10° NE
Cosmos 1802 Rocket 4.1 16:24:35 10° SSW 16:30:52 55° W 16:37:08 10° NNW
Cosmos 2233 Rocket 4.2 16:26:37 10° S 16:32:57 79° E 16:39:15 10° N
Cosmos 1666 3.9 16:34:02 23° WSW 16:34:02 23° WSW 16:36:46 10° SSW
Cosmos 1818 4.0 16:29:04 10° SW 16:33:59 36° WNW 16:38:53 10° N
Hubble Space Telescope 3.2 16:38:40 10° N 16:39:46 11° NNE 16:40:51 10° NNE
Cosmos 1833 4.2 16:34:15 10° SSW 16:39:47 57° WNW 16:45:17 10° N
Cosmos 1725 Rocket 4.0 16:33:45 10° SSW 16:39:56 61° W 16:46:06 10° N
Landsat 4 4.5 16:38:08 10° NNE 16:41:49 55° ESE 16:45:33 10° S
Meteor 1-31 Rocket 4.0 16:43:40 10° NNE 16:47:26 47° ESE 16:51:17 10° S
Cosmos 1666 Rocket 4.0 16:43:20 10° N 16:47:46 69° E 16:52:14 10° SSE
Cosmos 2123 Rocket 4.4 16:42:51 10° NNW 16:48:50 43° WSW 16:54:55 10° S
Cosmos 1743 Rocket 4.3 16:47:02 19° NW 16:49:24 31° WSW 16:53:21 10° SSW
Helios 1A 3.7 16:49:57 10° S 16:53:47 33° WSW 16:56:55 14° NW
ISS -1.1 16:53:51 10° SW 16:55:35 13° S 16:57:20 10° SSE
PSLV R/B 4.1 16:52:06 10° NNW 16:55:55 33° W 16:59:47 10° SSW
CZ-2C R/B 3.7 16:51:51 10° NNW 16:56:16 29° W 17:00:34 10° SW
Cosmos 1867 4.3 16:55:28 16° WNW 16:59:18 37° SW 17:04:19 10° SSE
SJ-12 4.3 16:58:06 10° N 17:02:04 44° W 17:06:07 10° SSW
Sich 1 3.6 16:59:22 10° NW 17:03:21 36° WSW 17:07:25 10° S
ATLAS 3B R/B 2.7 16:59:02 10° SSW 17:05:38 82° SE 17:11:59 10° NE
NOAA 12 4.3 17:03:13 10° NNE 17:08:35 81° ESE 17:14:00 10° S
Cosmos 1707 Rocket 3.6 17:05:46 10° SSW 17:10:19 72° W 17:14:46 10° N
Cosmos 1743 3.0 17:07:15 10° N 17:11:08 76° E 17:15:04 10° S
Meteor 1-4 Rocket 3.7 17:08:20 10° N 17:11:53 48° E 17:15:26 10° SSE
Cosmos 614 Rocket 4.5 17:08:46 10° NW 17:13:41 41° WSW 17:18:41 10° S
Timation 1 Rocket 4.5 17:08:48 10° SSW 17:14:55 86° ESE 17:20:57 10° NNE
CZ-2C R/B 3.0 17:09:45 10° SSE 17:15:04 69° ENE 17:20:15 10° N
Meteor 2-4 Rocket 4.4 17:10:04 10° SSW 17:15:30 37° W 17:20:54 10° NNW
Cosmos 1470 Rocket 4.0 17:14:31 10° N 17:18:58 72° E 17:23:31 10° SSE
USA 215 3.3 17:13:43 10° SE 17:20:23 85° SW 17:26:59 10° NW
SL-4 R/B 4.0 17:20:09 10° SW 17:22:48 17° S 17:25:20 10° SSE
Cosmos 1536 2.8 17:18:56 10° N 17:22:58 80° W 17:27:04 10° S
SL-08 R/B 4.2 17:18:24 10° SSE 17:23:02 53° E 17:27:33 10° N
SJ-7 4.4 17:19:20 10° N 17:23:31 77° W 17:27:43 10° SSW
Cosmos 1066 Rocket 4.3 17:17:41 10° SSW 17:23:33 70° W 17:29:23 10° N
COSMOS 2487 3.2 17:21:23 10° SW 17:23:48 23° WNW 17:26:10 10° NNW
CZ-4B R/B 4.3 17:19:57 10° NNW 17:24:28 30° W 17:28:57 10° SW
OE (NEXTSAT) 4.1 17:23:04 10° WSW 17:26:19 75° NNW 17:29:33 10° ENE
Meteor 1-13 Rocket 4.4 17:23:57 10° SSW 17:29:59 82° W 17:35:51 10° N
